When you browse on this site, cookies collect data to enhance your experience and personalize the content and advertising you see.
Visit our Privacy Policy to learn more. By continuing to use the site, you agree to this use of cookies and data.
  • în România
  • Lista ţărilor
  • Pe 7 zile
  • Temperatura apei
  • Hartă satelitară
  • Meteo pe hartă
  • Widget-uri
  • user-avatar
    Intrare

    Meteo pe oră la Ruse

    Astăzi, 19 Iunie, Miercuri

    Timp Temperatura Precipitaţii Vânt Presiune Umiditate
    00:00 +22°C° 0.2 mm 1 m/s 755 mmHg 85%
    01:00 +22°C° 0.2 mm 1 m/s 755 mmHg 86%
    02:00 +21°C° 0.2 mm 1 m/s 755 mmHg 88%
    03:00 +21°C° 0 mm 1 m/s 755 mmHg 89%
    04:00 +20°C° 0 mm 1 m/s 755 mmHg 90%
    05:00 +20°C° 0 mm 1 m/s 755 mmHg 92%
    06:00 +22°C° 0 mm 1 m/s 755 mmHg 85%
    07:00 +23°C° 0 mm 1 m/s 755 mmHg 78%
    08:00 +25°C° 0 mm 1 m/s 755 mmHg 72%
    09:00 +27°C° 0 mm 2 m/s 755 mmHg 61%
    10:00 +28°C° 0 mm 2 m/s 755 mmHg 49%
    11:00 +30°C° 0 mm 3 m/s 755 mmHg 38%
    12:00 +31°C° 0 mm 3 m/s 754 mmHg 38%
    13:00 +32°C° 0 mm 4 m/s 754 mmHg 37%
    14:00 +33°C° 0 mm 4 m/s 754 mmHg 37%
    15:00 +32°C° 0 mm 4 m/s 753 mmHg 38%
    16:00 +31°C° 0 mm 3 m/s 753 mmHg 39%
    17:00 +31°C° 0 mm 3 m/s 753 mmHg 41%
    18:00 +29°C° 0 mm 3 m/s 753 mmHg 49%
    19:00 +27°C° 0 mm 2 m/s 753 mmHg 56%
    20:00 +25°C° 0 mm 2 m/s 753 mmHg 64%
    21:00 +24°C° 0 mm 1 m/s 753 mmHg 67%
    22:00 +23°C° 0 mm 1 m/s 753 mmHg 70%
    23:00 +20°C° 0 mm 0 m/s 754 mmHg 73%

    Mâine, 20 Iunie, Joi

    Timp Temperatura Precipitaţii Vânt Presiune Umiditate
    00:00 +20°C° 0 mm 0 m/s 753 mmHg 74%
    01:00 +19°C° 0 mm 0 m/s 753 mmHg 76%
    02:00 +19°C° 0 mm 0 m/s 753 mmHg 77%
    03:00 +18°C° 0 mm 0 m/s 753 mmHg 78%
    04:00 +18°C° 0 mm 0 m/s 753 mmHg 80%
    05:00 +18°C° 0 mm 0 m/s 753 mmHg 81%
    06:00 +20°C° 0 mm 0 m/s 753 mmHg 76%
    07:00 +22°C° 0 mm 0 m/s 753 mmHg 70%
    08:00 +24°C° 0 mm 0 m/s 753 mmHg 64%
    09:00 +27°C° 0 mm 1 m/s 753 mmHg 59%
    10:00 +29°C° 0 mm 1 m/s 753 mmHg 54%
    11:00 +30°C° 0 mm 1 m/s 753 mmHg 48%
    12:00 +30°C° 0 mm 2 m/s 753 mmHg 47%
    13:00 +31°C° 0 mm 2 m/s 753 mmHg 46%
    14:00 +31°C° 0 mm 3 m/s 752 mmHg 45%
    15:00 +31°C° 0 mm 2 m/s 752 mmHg 45%
    16:00 +31°C° 0 mm 2 m/s 752 mmHg 46%
    17:00 +31°C° 0 mm 2 m/s 752 mmHg 46%
    18:00 +29°C° 0 mm 2 m/s 752 mmHg 52%
    19:00 +28°C° 0 mm 2 m/s 752 mmHg 58%
    20:00 +26°C° 0 mm 2 m/s 753 mmHg 64%
    21:00 +25°C° 0.7 mm 2 m/s 753 mmHg 70%
    22:00 +24°C° 0.7 mm 1 m/s 753 mmHg 76%
    23:00 +22°C° 0.7 mm 1 m/s 754 mmHg 81%

    Poimâine, 21 Iunie, Vineri

    Timp Temperatura Precipitaţii Vânt Presiune Umiditate
    00:00 +22°C° 0.3 mm 1 m/s 753 mmHg 82%
    01:00 +22°C° 0.3 mm 1 m/s 753 mmHg 83%
    02:00 +19°C° 0.3 mm 0 m/s 753 mmHg 84%
    03:00 +19°C° 0.1 mm 0 m/s 754 mmHg 84%
    04:00 +19°C° 0.1 mm 0 m/s 754 mmHg 85%
    05:00 +19°C° 0.1 mm 0 m/s 754 mmHg 85%
    06:00 +20°C° 0 mm 0 m/s 754 mmHg 80%
    07:00 +22°C° 0 mm 0 m/s 754 mmHg 75%
    08:00 +24°C° 0 mm 0 m/s 754 mmHg 70%
    09:00 +27°C° 0 mm 1 m/s 754 mmHg 64%
    10:00 +29°C° 0 mm 1 m/s 754 mmHg 58%
    11:00 +31°C° 0 mm 1 m/s 754 mmHg 52%
    12:00 +32°C° 0 mm 1 m/s 754 mmHg 48%
    13:00 +32°C° 0 mm 2 m/s 754 mmHg 44%
    14:00 +34°C° 0 mm 2 m/s 754 mmHg 40%
    15:00 +34°C° 0 mm 2 m/s 754 mmHg 41%
    16:00 +33°C° 0 mm 3 m/s 753 mmHg 43%
    17:00 +33°C° 0 mm 3 m/s 753 mmHg 44%
    18:00 +30°C° 0 mm 3 m/s 753 mmHg 51%
    19:00 +28°C° 0 mm 3 m/s 754 mmHg 59%
    20:00 +26°C° 0 mm 3 m/s 754 mmHg 67%
    21:00 +25°C° 0 mm 3 m/s 754 mmHg 71%
    22:00 +24°C° 0 mm 2 m/s 754 mmHg 76%
    23:00 +23°C° 0 mm 2 m/s 755 mmHg 80%

    22 Iunie, Sâmbătă

    Timp Temperatura Precipitaţii Vânt Presiune Umiditate
    00:00 +21°C° 0 mm 2 m/s 754 mmHg 82%
    01:00 +22°C° 0 mm 1 m/s 754 mmHg 83%
    02:00 +21°C° 0 mm 1 m/s 754 mmHg 85%
    03:00 +22°C° 0.1 mm 1 m/s 754 mmHg 81%
    04:00 +22°C° 0.1 mm 1 m/s 754 mmHg 82%
    05:00 +22°C° 0.1 mm 1 m/s 754 mmHg 84%
    06:00 +23°C° 0 mm 1 m/s 754 mmHg 78%
    07:00 +25°C° 0 mm 1 m/s 755 mmHg 73%
    08:00 +26°C° 0 mm 1 m/s 755 mmHg 67%
    09:00 +28°C° 0 mm 1 m/s 755 mmHg 62%
    10:00 +30°C° 0 mm 1 m/s 755 mmHg 57%
    11:00 +31°C° 0 mm 1 m/s 755 mmHg 52%
    12:00 +32°C° 0 mm 1 m/s 755 mmHg 48%
    13:00 +33°C° 0 mm 1 m/s 754 mmHg 44%
    14:00 +34°C° 0 mm 1 m/s 754 mmHg 40%
    15:00 +34°C° 0 mm 1 m/s 754 mmHg 41%
    16:00 +33°C° 0 mm 1 m/s 754 mmHg 41%
    17:00 +34°C° 0 mm 2 m/s 754 mmHg 42%
    18:00 +31°C° 0.1 mm 1 m/s 754 mmHg 48%
    19:00 +29°C° 0.1 mm 1 m/s 754 mmHg 55%
    20:00 +27°C° 0.1 mm 1 m/s 754 mmHg 61%
    21:00 +26°C° 0.1 mm 1 m/s 754 mmHg 66%
    22:00 +25°C° 0.1 mm 2 m/s 755 mmHg 71%
    23:00 +24°C° 0.1 mm 2 m/s 755 mmHg 77%

    23 Iunie, Duminică

    Timp Temperatura Precipitaţii Vânt Presiune Umiditate
    00:00 +23°C° 0 mm 2 m/s 755 mmHg 78%
    01:00 +23°C° 0 mm 2 m/s 755 mmHg 79%
    02:00 +23°C° 0 mm 1 m/s 755 mmHg 80%
    03:00 +23°C° 0 mm 1 m/s 755 mmHg 80%
    04:00 +22°C° 0 mm 1 m/s 755 mmHg 80%
    05:00 +22°C° 0 mm 1 m/s 755 mmHg 80%
    06:00 +24°C° 0 mm 1 m/s 755 mmHg 74%
    07:00 +26°C° 0 mm 1 m/s 755 mmHg 68%
    08:00 +28°C° 0 mm 1 m/s 755 mmHg 61%
    09:00 +30°C° 0 mm 1 m/s 755 mmHg 56%
    10:00 +32°C° 0 mm 1 m/s 755 mmHg 50%
    11:00 +34°C° 0 mm 1 m/s 755 mmHg 44%
    12:00 +34°C° 0 mm 1 m/s 755 mmHg 41%
    13:00 +35°C° 0 mm 1 m/s 754 mmHg 37%
    14:00 +36°C° 0 mm 1 m/s 754 mmHg 34%
    15:00 +36°C° 0 mm 1 m/s 754 mmHg 34%
    16:00 +35°C° 0 mm 1 m/s 754 mmHg 35%
    17:00 +35°C° 0 mm 1 m/s 753 mmHg 35%
    18:00 +33°C° 0.1 mm 1 m/s 754 mmHg 42%
    19:00 +31°C° 0.1 mm 1 m/s 754 mmHg 49%
    20:00 +28°C° 0.1 mm 1 m/s 754 mmHg 56%
    21:00 +27°C° 0.2 mm 1 m/s 754 mmHg 61%
    22:00 +26°C° 0.2 mm 1 m/s 755 mmHg 67%
    23:00 +25°C° 0.2 mm 1 m/s 755 mmHg 72%

    24 Iunie, Luni

    Timp Temperatura Precipitaţii Vânt Presiune Umiditate
    00:00 +24°C° 0.1 mm 1 m/s 755 mmHg 75%
    01:00 +24°C° 0.1 mm 1 m/s 755 mmHg 79%
    02:00 +23°C° 0.1 mm 1 m/s 755 mmHg 82%
    03:00 +23°C° 0 mm 2 m/s 755 mmHg 85%
    04:00 +21°C° 0 mm 2 m/s 755 mmHg 88%
    05:00 +21°C° 0 mm 2 m/s 755 mmHg 92%
    06:00 +22°C° 0 mm 3 m/s 755 mmHg 86%
    07:00 +25°C° 0 mm 4 m/s 755 mmHg 80%
    08:00 +26°C° 0 mm 5 m/s 756 mmHg 75%
    09:00 +28°C° 0 mm 5 m/s 756 mmHg 68%
    10:00 +30°C° 0 mm 5 m/s 756 mmHg 61%
    11:00 +32°C° 0 mm 5 m/s 756 mmHg 54%
    12:00 +33°C° 0 mm 6 m/s 755 mmHg 48%
    13:00 +34°C° 0 mm 6 m/s 755 mmHg 42%
    14:00 +35°C° 0 mm 6 m/s 755 mmHg 36%
    15:00 +35°C° 0 mm 6 m/s 755 mmHg 37%
    16:00 +34°C° 0 mm 6 m/s 755 mmHg 37%
    17:00 +34°C° 0 mm 6 m/s 755 mmHg 38%
    18:00 +32°C° 0 mm 6 m/s 755 mmHg 43%
    19:00 +29°C° 0 mm 5 m/s 755 mmHg 48%
    20:00 +27°C° 0 mm 5 m/s 755 mmHg 53%
    21:00 +26°C° 0 mm 4 m/s 756 mmHg 57%
    22:00 +23°C° 0 mm 4 m/s 756 mmHg 62%
    23:00 +22°C° 0 mm 4 m/s 757 mmHg 66%
    Arată mai mult